Location: Franklin Square
(40.7073°N, 73.6760°W)
Time: 07:38:38
(UTC+00:00)

Daily predictions for brighter satellites

Satellite Brightness Start Highest point End
(mag) Time Altitude Azimuth Time Altitude Azimuth Time Altitude Azimuth
SL-4 R/B 3.5 21:52:53 10° WNW 21:55:52 23° NNW 21:59:03 10° NE
Cosmos 2242 Rocket 4.4 21:51:54 10° SSE 21:55:59 33° E 22:00:05 10° NNE
Meteor 1-5 Rocket 4.1 21:52:45 10° N 21:58:15 69° E 22:03:34 10° SSE
Cosmos 1707 Rocket 4.3 21:54:03 10° SSW 21:58:27 59° W 22:02:53 10° N
CZ-4 R/B 3.2 21:58:24 10° ENE 21:58:54 10° ENE 21:59:24 10° NE
STARLINK-29 3.7 21:57:34 10° SSW 22:00:58 46° SE 22:04:21 10° ENE
CZ-4B R/B 4.0 21:59:52 10° S 22:05:03 56° WSW 22:10:22 10° NNW
ISS -3.7 22:03:32 10° NW 22:06:52 59° NE 22:10:10 10° ESE
Okean-O 3.4 22:04:12 10° SE 22:08:05 31° ENE 22:11:59 10° N
Exosat Rocket 3.6 22:05:34 10° SSW 22:11:05 84° WNW 22:16:05 10° NNE
SMAP 3.0 22:08:05 10° SSE 22:12:41 65° ENE 22:17:18 10° N
Cosmos 1743 4.5 22:12:15 10° NE 22:14:04 13° ENE 22:15:52 10° E
Cosmos 1092 Rocket 4.3 22:08:38 10° SSE 22:14:36 46° E 22:20:32 10° NNE
PSLV R/B 4.2 22:10:40 10° N 22:14:48 71° WNW 22:18:53 10° SSW
STARLINK-60 3.1 22:11:31 10° SW 22:14:53 77° NW 22:17:56 12° NE
Aureole 1 Rocket 2.9 22:14:05 10° S 22:16:48 33° ESE 22:19:23 11° NE
Cosmos 2278 Rocket 2.2 22:13:36 10° NNW 22:19:18 83° ENE 22:24:57 10° SSE
Cosmos 1908 Rocket 4.0 22:16:38 10° N 22:20:46 39° ENE 22:24:51 10° SSE
NOAA 12 4.2 22:17:34 10° SSE 22:22:42 52° ENE 22:27:49 10° N
Cosmos 1812 3.2 22:19:16 10° SSW 22:23:05 65° W 22:26:57 10° N
OAO 3 Rocket 4.1 22:19:03 10° WSW 22:23:26 40° S 22:27:53 10° ESE
COSMO-SKYMED 1 3.4 22:21:55 10° NE 22:25:46 30° E 22:29:35 10° SSE
YAOGAN 6 3.6 22:23:13 10° SE 22:26:05 24° ENE 22:29:00 10° NNE
Cosmos 1900 4.2 22:23:14 10° NNW 22:28:06 64° ENE 22:32:55 10° SE
AQUARIUS 4.1 22:23:56 10° SSE 22:28:26 86° ENE 22:32:57 10° NNW
YAOGAN 1 3.8 22:26:52 10° ESE 22:30:01 20° ENE 22:33:10 10° NNE
Cosmos 2369 Rocket 4.0 22:29:40 10° NNE 22:30:57 11° NE 22:30:57 11° NE
Cosmos 2251 Rocket 4.2 22:26:34 10° SW 22:31:46 55° WNW 22:36:59 10° N
SL-16 R/B 2.7 22:26:38 10° S 22:31:55 41° ESE 22:36:41 13° NE
BREEZE-M DEB (TANK) 1.9 22:29:49 10° WNW 22:32:15 70° SW 22:34:36 10° SE
Okean 1-7 3.5 22:28:53 10° SSE 22:32:53 38° E 22:36:57 10° NNE
Cosmos 1500 4.3 22:35:38 10° NNW 22:39:15 46° W 22:42:49 10° SSW
Cosmos 292 Rocket 3.8 22:36:19 10° NNW 22:41:09 60° ENE 22:45:55 10° SSE
Cosmos 2333 Rocket 4.1 22:36:49 10° WSW 22:41:30 25° NW 22:46:13 10° N
BREEZE-M R/B 4.2 22:37:24 10° WNW 22:41:43 24° N 22:43:18 18° NNE
Cosmos 2237 Rocket 2.7 22:36:37 10° SW 22:42:14 61° WNW 22:47:54 10° NNE
Envisat 2.9 22:37:20 10° SSE 22:42:21 66° ENE 22:47:25 10° N
USA 215 4.3 22:40:00 11° NE 22:45:40 35° NNW 22:51:28 10° W
COBE Rocket 4.5 22:42:40 10° N 22:47:13 56° WNW 22:51:48 10° SSW
CORIOLIS 4.5 22:42:32 10° S 22:47:57 71° WSW 22:53:25 10° NNW
Cosmos 1140 Rocket 4.1 22:43:51 10° SSE 22:48:24 33° E 22:50:40 23° ENE
Cosmos 407 Rocket 3.6 22:46:59 10° S 22:52:00 54° ESE 22:55:51 17° NNE
H-2A R/B 4.1 22:50:40 10° S 22:54:08 40° W 22:57:39 10° NNW
Cosmos 2219 Rocket 4.4 22:51:04 10° W 22:55:08 20° NW 22:59:14 10° N
Cosmos 1428 Rocket 4.5 22:49:19 10° S 22:55:21 60° E 23:01:28 10° NNE
Cosmos 1441 Rocket 3.0 22:55:19 10° N 22:59:07 67° E 23:02:50 10° SSE
Cosmos 1553 Rocket 4.3 22:56:37 10° N 23:02:42 44° ENE 23:08:46 10° SSE
FALCON 9 DEB 4.2 23:02:03 10° WSW 23:05:21 38° NNW 23:06:25 29° N
Cosmos 921 Rocket 2.9 23:01:25 10° N 23:05:39 58° ENE 23:09:56 10° SSE
Cosmos 1943 Rocket 3.4 23:04:36 10° N 23:07:51 22° NNE 23:07:51 22° NNE
Cosmos 1867 4.1 23:07:27 10° NNW 23:12:29 36° NE 23:12:53 35° ENE
Cosmos 2026 Rocket 3.9 23:07:40 10° S 23:13:44 86° W 23:19:49 10° N
SKYMED 2 3.6 23:09:59 12° N 23:14:00 77° WNW 23:18:20 10° SSW
CSL-04 Rocket 3.5 23:09:38 10° SSE 23:14:48 60° ENE 23:20:01 10° N
Cosmos 2221 Rocket 3.8 23:10:41 10° SSE 23:14:58 47° E 23:15:14 47° E
Cosmos 1782 Rocket 3.4 23:11:07 10° N 23:15:30 89° E 23:19:49 10° S
Genesis I 3.0 23:14:08 10° NNW 23:18:02 74° ENE 23:18:28 65° ESE
Sich 1 Rocket 3.4 23:13:42 10° N 23:18:06 71° E 23:22:28 10° SSE
USA 267 3.9 23:12:17 10° SSE 23:18:41 57° SW 23:25:07 10° NW
Shenzhou-11 Module 3.1 23:18:33 10° WNW 23:20:27 39° W 23:20:27 39° W
STARLINK-43 3.5 23:17:55 10° SW 23:21:21 56° SSE 23:21:21 56° SSE
Cosmos 2297 3.6 23:17:48 10° NNW 23:23:33 84° ENE 23:29:11 10° SSE
Cosmos 1666 4.4 23:20:09 10° NNW 23:23:33 33° W 23:26:54 10° SSW
OAO 2 Rocket 4.2 23:20:27 10° WSW 23:25:10 42° S 23:26:59 30° SE
Lacrosse 5 rocket 3.7 23:25:51 10° NW 23:27:47 13° NNW 23:28:46 12° N
CSL-04 Debris 4.1 23:26:01 10° SSE 23:31:29 86° ENE 23:36:57 10° NNW
CZ-4 R/B 1.7 23:29:32 10° S 23:33:24 61° WSW 23:37:16 10° NNW
Cosmos 1417 Rocket 4.3 23:27:51 10° N 23:34:00 74° E 23:40:08 10° SSE
Meteor 1-18 Rocket 4.3 23:28:51 10° SSW 23:34:35 78° W 23:39:37 13° N
Okean 1 3.9 23:31:23 10° SSW 23:35:18 55° W 23:36:51 32° NNW
SL-4 R/B 4.1 23:33:55 10° NW 23:35:35 16° NNW 23:35:35 16° NNW
CZ-3B R/B 4.2 23:37:16 10° S 23:41:02 15° SE 23:41:35 15° SE
ISS -0.8 23:41:09 10° W 23:43:16 16° SW 23:45:06 11° SSW
DMSP B5D1-3 4.4 23:45:18 62° NNE 23:46:12 87° ESE 23:51:19 10° SSW
Cosmos 676 Rocket 3.8 23:42:23 10° SSW 23:47:33 89° SE 23:47:57 77° NNE
Cosmos 1655 Rocket 3.9 23:41:54 10° S 23:48:14 85° E 23:52:08 25° N
Cosmos 1743 3.9 23:46:24 10° NNW 23:50:03 41° W 23:53:42 10° SSW
Meteor 2-9 Rocket 4.1 23:46:59 10° N 23:52:54 87° E 23:58:40 10° S
Cosmos 1241 Rocket 4.3 23:47:16 10° SSW 23:53:40 83° ESE 23:54:36 66° NE
NOAA 11 4.2 23:48:59 10° S 23:54:26 79° WSW 23:59:56 10° NNW
